Flag for Germany Weather past 2 weeks in Mühlhausen/Thüringen, Thuringia, Germany

Now
48 °F

Passing clouds.


Feels Like: 47 °F
Forecast: 43 / 71 °F
Wind: 3 mph from Southwest

Location: Erfurt-Bindersleben

Current Time: Aug 21, 2014 at 3:02:35 AM

Latest Report: Aug 21, 2014 at 2:00 AM


Visibility: 31 mi

Pressure: 30.03 "Hg

Humidity: 83%

Dew point: 44 °F

Location of Mühlhausen/ThüringenLocation

Historic Weather in Mühlhausen/Thüringen — Graph

°F

Mühlhausen/Thüringen temperature yesterday

Maximum temperature yesterday: 63 °F (at 5:00 PM)
Minimum temperature yesterday: 45 °F (at 5:00 AM)
Average temperature yesterday: 53 °F

Past Weeks' High & Low Weather Summary

 TemperatureHumidityPressure
High80 °F (Aug 10, 4:00 PM)98% (Aug 6, 6:00 AM)30.13 "Hg (Aug 6, 6:00 AM)
Low45 °F (Aug 20, 5:00 AM)36% (Aug 12, 6:00 PM)29.63 "Hg (Aug 13, 4:00 PM)
Average61 °F72%29.89 "Hg
* Reported Aug 6 1:00 AM — Aug 21 1:00 AM, Mühlhausen/Thüringen, Weather by CustomWeather, © 2014

Note: Actual official high and low records may vary slightly from our data, if they occured in-between our weather recording intervals... More about our weather records

Advertising

Mühlhausen/Thüringen weather history for previous 24 hours

 ConditionsComfort  
Time TempWeatherWind HumidityBarometerVisibility
1:00 AM
Aug 21
49 °FOvercast.2 mph83%30.03 "Hg37 mi
12:00 AM50 °FPassing clouds.2 mph80%30.03 "Hg37 mi
11:00 PM
Aug 20
51 °FPassing clouds.3 mph74%30.02 "Hg37 mi
10:00 PM54 °FOvercast.2 mph64%30.01 "Hg37 mi
9:00 PM53 °FPassing clouds.3 mph66%30.01 "Hg47 mi
8:00 PM56 °FScattered clouds.3 mph57%29.99 "Hg47 mi
7:00 PM59 °FPartly sunny.5 mph46%29.98 "Hg47 mi
6:00 PM60 °FPartly sunny.6 mph47%29.98 "Hg47 mi
5:00 PM63 °FScattered clouds.6 mph39%29.98 "Hg47 mi
4:00 PM62 °FPartly sunny.6 mph45%29.99 "Hg47 mi
3:00 PM59 °FPartly sunny.5 mph54%30.01 "Hg47 mi
2:00 PM58 °FOvercast.6 mph54%30.01 "Hg47 mi
1:00 PM59 °FPartly sunny.7 mph57%30.00 "Hg47 mi
12:00 PM57 °FPartly sunny.6 mph59%30.02 "Hg47 mi
11:00 AM56 °FScattered clouds.7 mph66%30.02 "Hg37 mi
10:00 AM54 °FScattered clouds.6 mph70%30.02 "Hg25 mi
9:00 AM52 °FScattered clouds.6 mph77%30.01 "Hg25 mi
8:00 AM49 °FPassing clouds.5 mph85%30.01 "Hg25 mi
7:00 AM45 °FPassing clouds.5 mph90%30.01 "Hg22 mi
6:00 AM45 °FPassing clouds.5 mph90%30.00 "Hg25 mi
5:00 AM45 °FClear.5 mph90%29.99 "Hg31 mi
4:00 AM46 °FClear.3 mph87%29.98 "Hg31 mi
3:00 AM49 °FPassing clouds.3 mph83%29.97 "Hg31 mi
Weather by CustomWeather, © 2014

See weather overviewHow to use our weather pages